[Iaude] MPEC D53: 2024 BY15 [a=1.04,e=0.04,i=0.1,H=26.8]
    mpec at cfa.harvard.edu 
    mpec at cfa.harvard.edu
       
    Sun Feb 18 11:05:06 EST 2024
    
    
  
M.P.E.C. 2024-D53                             Issued 2024 February 18, 16:03 UT
     The Minor Planet Electronic Circulars contain information on unusual
         minor planets, routine data on comets and natural satellites,
         and occasional editorial announcements.  They are published
    on behalf of Division F of the International Astronomical Union by the
          Minor Planet Center, Smithsonian Astrophysical Observatory,
                          Cambridge, MA 02138, U.S.A.
			  
             Prepared using the Tamkin Foundation Computer Network
                              MPC at CFA.HARVARD.EDU
            URL https://www.minorplanetcenter.net/    ISSN 1523-6714
                                   2024 BY15                                    
Observations:
     K24B15Y* C2024 01 19.62279911 52 50.846+03 37 03.16         21.97wXED053F52
     K24B15Y  C2024 01 19.63396411 52 53.212+03 36 43.97         22.32wXED053F52
     K24B15Y  C2024 01 19.64517111 52 55.571+03 36 25.02         21.89wXED053F52
     K24B15Y  C2024 01 19.65626311 52 57.927+03 36 06.00         22.01wXED053F52
     K24B15Y  C2024 01 21.59822612 02 30.240+02 40 29.41         21.61wXED053F51
     K24B15Y  C2024 01 21.62767712 02 36.573+02 39 37.69         22.07GVED053F52
     K24B15Y  C2024 01 21.62849512 02 36.773+02 39 36.30         22.11GVED053F52
     K24B15Y  C2024 01 21.63711712 02 38.630+02 39 21.01         22.17wXED053F51
     K24B15Y  C2024 01 21.64887212 02 41.180+02 39 00.27         22.32wXED053F51
Observer details:
F51 Pan-STARRS 1, Haleakala.  Observers J. Herman, T. Lowe, P. Minguez, A.
    Schultz, I. Smith.  Measurers K. Chambers, T. de Boer, J. Fairlamb, H.
    Gao, M. Huber, C.-C. Lin, E. Magnier, Y. Ramanjooloo, R. Wainscoat, R.
    Weryk.  1.8-m Ritchey-Chretien + CCD.
F52 Pan-STARRS 2, Haleakala.  Observers J. Herman, T. Lowe, P. Minguez, A.
    Schultz, I. Smith.  Measurers K. Chambers, T. de Boer, J. Fairlamb, H.
    Gao, M. Huber, C.-C. Lin, E. Magnier, Y. Ramanjooloo, R. Wainscoat, R.
    Weryk.  1.8-m Ritchey-Chretien + CCD.
Orbital elements:
2024 BY15                                                Earth MOID = 0.0011 AU
Epoch 2024 Mar. 31.0 TT = JDT 2460400.5                 Veres                   
M  26.10160              (2000.0)            P               Q                  
n   0.93465998     Peri.  129.65822     -0.96345313     -0.26787448             
a   1.0360172      Node    34.80400     +0.24514845     -0.88343707             
e   0.0385409      Incl.    0.11595     +0.10798292     -0.38442451             
P   1.05           H   26.89          G   0.15           U   9                  
Residuals in seconds of arc
240119 F52  0.2-  0.1+    240119 F52  0.0   0.0     240121 F52  0.2+  0.0
240119 F52  0.1+  0.1-    240121 F51  0.0   0.0     240121 F51  0.0   0.1-
240119 F52  0.0   0.0     240121 F52  0.2-  0.0     240121 F51  0.1-  0.1-
Ephemeris:
2024 BY15                a,e,i = 1.04, 0.04, 0                   q = 0.9961
Date    TT    R. A. (2000) Decl.     Delta      r    Elong.  Phase     V
2024 01 19    11 49 53.8 +03 55 26   0.04413 1.0079   121.9    56.0    22.2
...
2024 02 03    13 09 37.6 -03 56 19   0.03553 1.0014   115.7    62.5    21.9
...
2024 02 11    13 58 21.0 -08 31 23   0.03282 0.9990   110.9    67.4    21.8
...
2024 02 17    14 36 35.1 -11 48 27   0.03168 0.9976   106.9    71.3    21.9
2024 02 18    14 43 02.9 -12 19 43   0.03157 0.9975   106.3    72.0    21.9
2024 02 19    14 49 31.6 -12 50 26   0.03147 0.9973   105.6    72.6    21.9
...
2024 02 25    15 28 31.3 -15 40 19   0.03128 0.9965   101.8    76.4    22.0
...
2024 03 04    16 19 26.9 -18 38 16   0.03188 0.9962    97.3    80.9    22.2
...
2024 03 19    17 43 55.4 -21 30 47   0.03467 0.9975    92.3    85.7    22.6
M. P. C. Staff               (C) Copyright 2024 MPC           M.P.E.C. 2024-D53
    
    
More information about the Iaude
mailing list